| time (UTC) | temp F | wind direction | speed MPH | gust MPH | rain 1hr in | rain 24hr in | rain mn in | humidity % | barometer mb |
| 20260505051014 | 76 | 141 | 0.0 | 2.0 | 0.00 | 0.00 | 0.00 | 90 | 1017.6 |
| 20260505050518 | 76 | 136 | 0.0 | 2.0 | 0.00 | 0.00 | 0.00 | 90 | 1017.7 |
| 20260505041509 | 76 | 127 | 0.0 | 0.0 | 0.00 | 0.00 | 0.00 | 88 | 1018.2 |
| 20260505041008 | 76 | 127 | 0.0 | 0.0 | 0.00 | 0.00 | 0.00 | 88 | 1018.3 |
| 20260505040507 | 76 | 127 | 0.0 | 0.0 | 0.00 | 0.00 | 0.00 | 88 | 1018.3 |
| 20260505040007 | 76 | 127 | 0.0 | 0.0 | 0.00 | 0.00 | 0.00 | 88 | 1018.4 |
| 20260505035505 | 76 | 127 | 0.0 | 0.0 | 0.00 | 0.00 | 0.00 | 89 | 1018.4 |
| 20260505035005 | 76 | 127 | 0.0 | 2.0 | 0.00 | 0.00 | 0.00 | 89 | 1018.6 |
| 20260505034505 | 76 | 127 | 0.0 | 2.0 | 0.00 | 0.00 | 0.00 | 89 | 1018.6 |
| 20260505034005 | 76 | 127 | 0.0 | 0.0 | 0.00 | 0.00 | 0.00 | 89 | 1018.7 |
| 20260505033505 | 76 | 127 | 0.0 | 0.0 | 0.00 | 0.00 | 0.00 | 89 | 1018.7 |
| 20260505033007 | 75 | 127 | 0.0 | 0.0 | 0.00 | 0.00 | 0.00 | 89 | 1018.8 |
| 20260505032508 | 76 | 127 | 0.0 | 0.0 | 0.00 | 0.00 | 0.00 | 89 | 1018.8 |
| 20260505032007 | 76 | 127 | 0.0 | 0.0 | 0.00 | 0.00 | 0.00 | 88 | 1018.8 |
| 20260505031516 | 76 | 127 | 0.0 | 0.0 | 0.00 | 0.00 | 0.00 | 89 | 1018.8 |
| 20260505031004 | 76 | 127 | 0.0 | 0.0 | 0.00 | 0.00 | 0.00 | 88 | 1018.6 |
| 20260505030504 | 76 | 127 | 0.0 | 0.0 | 0.00 | 0.00 | 0.00 | 88 | 1018.7 |
| 20260505030004 | 76 | 127 | 0.0 | 0.0 | 0.00 | 0.00 | 0.00 | 88 | 1018.7 |
| 20260505025509 | 76 | 127 | 0.0 | 0.0 | 0.00 | 0.00 | 0.00 | 88 | 1018.7 |
| 20260505025006 | 76 | 127 | 0.0 | 0.0 | 0.00 | 0.00 | 0.00 | 87 | 1018.6 |
| 20260505024504 | 77 | 127 | 0.0 | 2.0 | 0.00 | 0.00 | 0.00 | 87 | 1018.6 |
| 20260505024003 | 77 | 127 | 0.0 | 2.0 | 0.00 | 0.00 | 0.00 | 87 | 1018.6 |
| 20260505023503 | 77 | 127 | 0.0 | 1.0 | 0.00 | 0.00 | 0.00 | 86 | 1018.6 |
| 20260505023003 | 77 | 127 | 0.0 | 1.0 | 0.00 | 0.00 | 0.00 | 86 | 1018.4 |
| 20260505022503 | 77 | 127 | 0.0 | 1.0 | 0.00 | 0.00 | 0.00 | 86 | 1018.3 |
| 20260505022003 | 77 | 127 | 0.0 | 0.0 | 0.00 | 0.00 | 0.00 | 86 | 1018.6 |
| 20260505021503 | 77 | 127 | 0.0 | 1.0 | 0.00 | 0.00 | 0.00 | 86 | 1018.5 |
| 20260505021003 | 77 | 127 | 0.0 | 1.0 | 0.00 | 0.00 | 0.00 | 85 | 1018.4 |
| 20260505020503 | 77 | 127 | 0.0 | 2.0 | 0.00 | 0.00 | 0.00 | 85 | 1018.4 |
| 20260505020003 | 77 | 127 | 1.0 | 2.0 | 0.00 | 0.00 | 0.00 | 85 | 1018.6 |
| 20260505015502 | 77 | 127 | 0.0 | 3.0 | 0.00 | 0.00 | 0.00 | 85 | 1018.4 |
| 20260505015002 | 77 | 127 | 1.0 | 3.0 | 0.00 | 0.00 | 0.00 | 85 | 1018.6 |
| 20260505014506 | 77 | 127 | 0.0 | 2.0 | 0.00 | 0.00 | 0.00 | 85 | 1018.4 |
| 20260505014002 | 77 | 127 | 0.0 | 1.0 | 0.00 | 0.00 | 0.00 | 85 | 1018.3 |
| 20260505013503 | 78 | 127 | 0.0 | 6.0 | 0.00 | 0.00 | 0.00 | 84 | 1018.2 |
| 20260505013002 | 77 | 127 | 1.0 | 6.0 | 0.00 | 0.00 | 0.00 | 85 | 1018.2 |
| 20260505012504 | 78 | 107 | 1.0 | 6.0 | 0.00 | 0.00 | 0.00 | 84 | 1018.2 |
| 20260505012002 | 78 | 119 | 2.0 | 6.0 | 0.00 | 0.00 | 0.00 | 84 | 1018.1 |
| 20260505011500 | 78 | 119 | 2.0 | 6.0 | 0.00 | 0.00 | 0.00 | 84 | 1018.0 |
| 20260505011001 | 78 | 124 | 2.0 | 6.0 | 0.00 | 0.00 | 0.00 | 83 | 1017.9 |
| 20260505010502 | 78 | 107 | 0.0 | 6.0 | 0.00 | 0.00 | 0.00 | 84 | 1017.9 |
| 20260505010001 | 78 | 108 | 2.0 | 6.0 | 0.00 | 0.00 | 0.00 | 83 | 1017.9 |
| 20260505005601 | 78 | 121 | 0.0 | 3.0 | 0.00 | 0.00 | 0.00 | 83 | 1017.8 |
| 20260505005100 | 78 | 121 | 1.0 | 4.0 | 0.00 | 0.00 | 0.00 | 83 | 1017.8 |
| 20260505004600 | 78 | 121 | 0.0 | 2.0 | 0.00 | 0.00 | 0.00 | 83 | 1017.8 |
| 20260505004059 | 78 | 121 | 0.0 | 4.0 | 0.00 | 0.00 | 0.00 | 83 | 1017.8 |
| 20260505003559 | 78 | 121 | 1.0 | 4.0 | 0.00 | 0.00 | 0.00 | 82 | 1017.7 |
| 20260505003119 | 78 | 121 | 0.0 | 6.0 | 0.00 | 0.00 | 0.00 | 82 | 1017.6 |
| 20260505002559 | 78 | 121 | 0.0 | 6.0 | 0.00 | 0.00 | 0.00 | 82 | 1017.7 |
| 20260505002502 | 78 | 121 | 0.0 | 6.0 | 0.00 | 0.00 | 0.00 | 82 | 1017.5 |
| 20260505002059 | 78 | 121 | 2.0 | 6.0 | 0.00 | 0.00 | 0.00 | 82 | 1017.6 |
| 20260505001559 | 78 | 123 | 1.0 | 6.0 | 0.00 | 0.00 | 0.00 | 82 | 1017.7 |
| 20260505001058 | 78 | 105 | 1.0 | 2.0 | 0.00 | 0.00 | 0.00 | 82 | 1017.6 |
| 20260505000558 | 79 | 105 | 0.0 | 6.0 | 0.00 | 0.00 | 0.00 | 81 | 1017.7 |
| 20260504235558 | 79 | 108 | 0.0 | 4.0 | 0.00 | 0.00 | 0.00 | 81 | 1017.7 |
| 20260504235058 | 79 | 96 | 1.0 | 4.0 | 0.00 | 0.00 | 0.00 | 81 | 1017.6 |
| 20260504234558 | 79 | 96 | 0.0 | 1.0 | 0.00 | 0.00 | 0.00 | 80 | 1017.6 |
| 20260504234057 | 79 | 96 | 0.0 | 3.0 | 0.00 | 0.00 | 0.00 | 80 | 1017.6 |
| 20260504233600 | 79 | 96 | 1.0 | 6.0 | 0.00 | 0.00 | 0.00 | 80 | 1017.4 |
| 20260504233105 | 79 | 150 | 1.0 | 7.0 | 0.00 | 0.00 | 0.00 | 79 | 1017.5 |
| 20260504232557 | 79 | 106 | 2.0 | 7.0 | 0.00 | 0.00 | 0.00 | 79 | 1017.4 |
| 20260504232057 | 79 | 155 | 2.0 | 7.0 | 0.00 | 0.00 | 0.00 | 79 | 1017.3 |
| 20260504231557 | 79 | 155 | 1.0 | 5.0 | 0.00 | 0.00 | 0.00 | 78 | 1017.2 |
| 20260504231057 | 80 | 343 | 0.0 | 4.0 | 0.00 | 0.00 | 0.00 | 78 | 1017.2 |
| 20260504230557 | 80 | 121 | 1.0 | 6.0 | 0.00 | 0.00 | 0.00 | 78 | 1017.1 |
| 20260504230113 | 80 | 94 | 2.0 | 7.0 | 0.00 | 0.00 | 0.00 | 77 | 1017.1 |
| 20260504225555 | 80 | 98 | 2.0 | 6.0 | 0.00 | 0.00 | 0.00 | 77 | 1017.0 |
| 20260504225058 | 80 | 96 | 2.0 | 6.0 | 0.00 | 0.00 | 0.00 | 77 | 1017.0 |
| 20260504224620 | 80 | 106 | 0.0 | 6.0 | 0.00 | 0.00 | 0.00 | 77 | 1017.0 |
| 20260504224055 | 80 | 107 | 1.0 | 6.0 | 0.00 | 0.00 | 0.00 | 76 | 1016.8 |
| 20260504223555 | 80 | 84 | 0.0 | 6.0 | 0.00 | 0.00 | 0.00 | 76 | 1016.8 |
| 20260504223058 | 80 | 103 | 1.0 | 8.0 | 0.00 | 0.00 | 0.00 | 76 | 1016.8 |
| 20260504222556 | 80 | 119 | 2.0 | 8.0 | 0.00 | 0.00 | 0.00 | 76 | 1016.7 |
| 20260504222055 | 80 | 75 | 2.0 | 7.0 | 0.00 | 0.00 | 0.00 | 76 | 1016.6 |
| 20260504221555 | 80 | 112 | 3.0 | 6.0 | 0.00 | 0.00 | 0.00 | 75 | 1016.5 |
| 20260504221054 | 81 | 305 | 2.0 | 12.0 | 0.00 | 0.00 | 0.00 | 75 | 1016.7 |
| 20260504220555 | 81 | 71 | 3.0 | 12.0 | 0.00 | 0.00 | 0.00 | 75 | 1016.6 |
| 20260504220058 | 81 | 10 | 3.0 | 11.0 | 0.00 | 0.00 | 0.00 | 76 | 1016.4 |
| 20260504215554 | 81 | 126 | 3.0 | 11.0 | 0.00 | 0.00 | 0.00 | 76 | 1016.2 |
| 20260504215153 | 81 | 59 | 2.0 | 8.0 | 0.00 | 0.00 | 0.00 | 77 | 1016.2 |
| 20260504214553 | 81 | 74 | 3.0 | 8.0 | 0.00 | 0.00 | 0.00 | 77 | 1016.3 |
| 20260504214055 | 81 | 345 | 3.0 | 8.0 | 0.00 | 0.00 | 0.00 | 77 | 1016.1 |
| 20260504213553 | 81 | 251 | 2.0 | 7.0 | 0.00 | 0.00 | 0.00 | 77 | 1015.9 |
| 20260504213100 | 81 | 325 | 2.0 | 10.0 | 0.00 | 0.00 | 0.00 | 77 | 1016.0 |
| 20260504212555 | 81 | 94 | 4.0 | 10.0 | 0.00 | 0.00 | 0.00 | 76 | 1015.9 |
| 20260504212055 | 82 | 122 | 2.0 | 11.0 | 0.00 | 0.00 | 0.00 | 76 | 1015.9 |
| 20260504211558 | 82 | 85 | 3.0 | 10.0 | 0.00 | 0.00 | 0.00 | 76 | 1016.0 |
| 20260504211153 | 82 | 135 | 4.0 | 11.0 | 0.00 | 0.00 | 0.00 | 76 | 1015.8 |
| 20260504210554 | 82 | 106 | 4.0 | 11.0 | 0.00 | 0.00 | 0.00 | 76 | 1015.8 |
| 20260504210101 | 82 | 87 | 4.0 | 13.0 | 0.00 | 0.00 | 0.00 | 75 | 1015.7 |
| 20260504205551 | 83 | 95 | 5.0 | 13.0 | 0.00 | 0.00 | 0.00 | 74 | 1015.7 |
| 20260504205051 | 83 | 269 | 3.0 | 13.0 | 0.00 | 0.00 | 0.00 | 73 | 1015.7 |
| 20260504204554 | 83 | 101 | 3.0 | 13.0 | 0.00 | 0.00 | 0.00 | 72 | 1015.7 |
| 20260504204054 | 84 | 355 | 5.0 | 13.0 | 0.00 | 0.00 | 0.00 | 71 | 1015.5 |
| 20260504203551 | 84 | 13 | 3.0 | 11.0 | 0.00 | 0.00 | 0.00 | 70 | 1015.5 |
| 20260504203051 | 84 | 63 | 3.0 | 14.0 | 0.00 | 0.00 | 0.00 | 71 | 1015.3 |
| 20260504202550 | 84 | 281 | 4.0 | 14.0 | 0.00 | 0.00 | 0.00 | 70 | 1015.5 |
| 20260504202053 | 84 | 136 | 4.0 | 11.0 | 0.00 | 0.00 | 0.00 | 69 | 1015.6 |
| 20260504201550 | 84 | 329 | 4.0 | 11.0 | 0.00 | 0.00 | 0.00 | 69 | 1015.5 |
| 20260504201049 | 84 | 101 | 4.0 | 9.0 | 0.00 | 0.00 | 0.00 | 69 | 1015.5 |
| 20260504200549 | 84 | 264 | 3.0 | 13.0 | 0.00 | 0.00 | 0.00 | 69 | 1015.7 |
| 20260504200059 | 85 | 250 | 3.0 | 9.0 | 0.00 | 0.00 | 0.00 | 69 | 1015.8 |
| 20260504195548 | 85 | 28 | 3.0 | 9.0 | 0.00 | 0.00 | 0.00 | 69 | 1015.6 |
| 20260504195047 | 85 | 202 | 2.0 | 11.0 | 0.00 | 0.00 | 0.00 | 67 | 1015.6 |
| 20260504194547 | 85 | 119 | 3.0 | 11.0 | 0.00 | 0.00 | 0.00 | 67 | 1015.7 |
| 20260504194046 | 85 | 72 | 4.0 | 11.0 | 0.00 | 0.00 | 0.00 | 67 | 1015.6 |
| 20260504193546 | 85 | 118 | 3.0 | 14.0 | 0.00 | 0.00 | 0.00 | 68 | 1015.7 |
| 20260504193048 | 85 | 143 | 5.0 | 11.0 | 0.00 | 0.00 | 0.00 | 68 | 1015.7 |
| 20260504192544 | 85 | 244 | 4.0 | 11.0 | 0.00 | 0.00 | 0.00 | 67 | 1015.7 |
| 20260504192044 | 86 | 78 | 3.0 | 8.0 | 0.00 | 0.00 | 0.00 | 68 | 1015.6 |
| 20260504191552 | 85 | 329 | 1.0 | 8.0 | 0.00 | 0.00 | 0.00 | 69 | 1015.8 |
| 20260504191042 | 84 | 215 | 2.0 | 10.0 | 0.00 | 0.00 | 0.00 | 70 | 1015.9 |
| 20260504190542 | 85 | 206 | 5.0 | 12.0 | 0.00 | 0.00 | 0.00 | 68 | 1016.0 |
| 20260504190041 | 85 | 111 | 5.0 | 12.0 | 0.00 | 0.00 | 0.00 | 68 | 1016.0 |
| 20260504185538 | 84 | 34 | 5.0 | 12.0 | 0.00 | 0.00 | 0.00 | 68 | 1016.0 |
| 20260504185042 | 86 | 117 | 4.0 | 14.0 | 0.00 | 0.00 | 0.00 | 67 | 1016.0 |
| 20260504184539 | 86 | 71 | 3.0 | 14.0 | 0.00 | 0.00 | 0.00 | 68 | 1016.0 |
| 20260504184039 | 85 | 50 | 3.0 | 11.0 | 0.00 | 0.00 | 0.00 | 68 | 1016.2 |
| 20260504183534 | 84 | 66 | 4.0 | 9.0 | 0.00 | 0.00 | 0.00 | 69 | 1016.4 |
| 20260504183037 | 84 | 311 | 3.0 | 10.0 | 0.00 | 0.00 | 0.00 | 68 | 1016.3 |
| 20260504182533 | 85 | 42 | 3.0 | 10.0 | 0.00 | 0.00 | 0.00 | 67 | 1016.2 |
| 20260504182033 | 86 | 98 | 3.0 | 14.0 | 0.00 | 0.00 | 0.00 | 66 | 1016.4 |
| 20260504181533 | 86 | 167 | 7.0 | 14.0 | 0.00 | 0.00 | 0.00 | 66 | 1016.6 |
| 20260504181031 | 87 | 46 | 4.0 | 16.0 | 0.00 | 0.00 | 0.00 | 64 | 1016.3 |
| 20260504180530 | 87 | 38 | 3.0 | 12.0 | 0.00 | 0.00 | 0.00 | 64 | 1016.5 |
| 20260504180030 | 87 | 342 | 2.0 | 10.0 | 0.00 | 0.00 | 0.00 | 64 | 1016.5 |
| 20260504175528 | 88 | 140 | 2.0 | 11.0 | 0.00 | 0.00 | 0.00 | 64 | 1016.6 |
| 20260504175027 | 87 | 273 | 3.0 | 11.0 | 0.00 | 0.00 | 0.00 | 63 | 1016.6 |
| 20260504174526 | 87 | 20 | 6.0 | 16.0 | 0.00 | 0.00 | 0.00 | 63 | 1016.7 |
| 20260504174027 | 87 | 98 | 6.0 | 16.0 | 0.00 | 0.00 | 0.00 | 64 | 1016.8 |
| 20260504173528 | 87 | 126 | 4.0 | 15.0 | 0.00 | 0.00 | 0.00 | 63 | 1016.7 |
| 20260504173025 | 87 | 92 | 3.0 | 12.0 | 0.00 | 0.00 | 0.00 | 63 | 1016.9 |
| 20260504172524 | 86 | 127 | 6.0 | 12.0 | 0.00 | 0.00 | 0.00 | 62 | 1017.0 |
| 20260504172024 | 87 | 131 | 5.0 | 11.0 | 0.00 | 0.00 | 0.00 | 61 | 1017.0 |
| 20260504171524 | 87 | 198 | 4.0 | 11.0 | 0.00 | 0.00 | 0.00 | 61 | 1017.2 |
| 20260504171024 | 87 | 80 | 5.0 | 12.0 | 0.00 | 0.00 | 0.00 | 62 | 1017.3 |
| 20260504170523 | 87 | 116 | 5.0 | 12.0 | 0.00 | 0.00 | 0.00 | 62 | 1017.5 |
| 20260504151011 | 85 | 135 | 4.0 | 10.0 | 0.00 | 0.00 | 0.00 | 65 | 1018.5 |
| 20260504150512 | 85 | 175 | 4.0 | 11.0 | 0.00 | 0.00 | 0.00 | 65 | 1018.3 |
| 20260504141006 | 84 | 88 | 5.0 | 12.0 | 0.00 | 0.00 | 0.00 | 69 | 1018.2 |
| 20260504140502 | 84 | 329 | 6.0 | 16.0 | 0.00 | 0.00 | 0.00 | 69 | 1018.2 |
| 20260504130554 | 82 | 161 | 5.0 | 10.0 | 0.00 | 0.00 | 0.00 | 74 | 1018.4 |
| 20260504110529 | 76 | 184 | 0.0 | 0.0 | 0.00 | 0.00 | 0.00 | 86 | 1018.4 |
| 20260504100520 | 74 | 187 | 0.0 | 0.0 | 0.00 | 0.00 | 0.00 | 88 | 1017.9 |
| 20260504081517 | 74 | 139 | 0.0 | 0.0 | 0.00 | 0.00 | 0.00 | 87 | 1016.9 |
| 20260504081009 | 74 | 139 | 0.0 | 0.0 | 0.00 | 0.00 | 0.00 | 87 | 1016.9 |
| 20260504080517 | 74 | 139 | 0.0 | 0.0 | 0.00 | 0.00 | 0.00 | 87 | 1017.0 |